Weather History for KOTH - July, 2013

Change the Weather History Date:

Monday, July 1, 2013

  Actual Average Record
Temperature  
Mean Temperature 68 °F 58 °F  
Max Temperature 75 °F 63 °F 79 °F (1942)
Min Temperature 61 °F 52 °F 41 °F (1922)
Degree Days  
Heating Degree Days 0 7  
Month to date heating degree days 0 7  
Since 1 June heating degree days 171 274  
Since 1 July heating degree days 0 7  
Cooling Degree Days 3 0  
Month to date cooling degree days 3 0  
Year to date cooling degree days 23 0  
Since 1 June cooling degree days 19 0  
Growing Degree Days 18 (Base 50)    
Moisture  
Dew Point 67 °F    
Average Humidity 90    
Maximum Humidity 100    
Minimum Humidity 79    
Precipitation  
Precipitation 0.00 in 0.02 in 1.29 in (1983)
Month to date precipitation 0.00 0.02  
Year to date precipitation 17.49 36.14  
Sea Level Pressure  
Sea Level Pressure 30.02 in    
Wind  
Wind Speed 11 mph (NNE)    
Max Wind Speed 21 mph    
Max Gust Speed 24 mph    
Visibility 9 miles    
Events      
T = Trace of Precipitation, MM = Missing Value Source: NWS Daily Summary

Daily Weather History Graph

Daily Weather History Graph

Search for Another Location

Airport or City:

Trip Planner

Search our weather history database for the weather conditions in past years. The results will help you decide how hot, cold, wet, or windy it might be!

Date:

Astronomy

Jul. 01, 2013 Rise Set
Actual Time 5:40 AM PDT 9:01 PM PDT
Civil Twilight 5:04 AM PDT 9:36 PM PDT
Nautical Twilight 4:18 AM PDT 10:22 PM PDT
Astronomical Twilight 3:21 AM PDT 11:20 PM PDT
Moon 1:19 AM PDT (7/1) 3:16 PM PDT (7/1)
Length of Visible Light 16h 32m
Length of Day
15h 20m
Waning Crescent, 34% of the Moon is Illuminated
Jul 1
Waning Crescent
Jul 8
New
Jul 15
First Quarter
Jul 22
Full
Jul 29
Last Quarter

Hourly Weather History & Observations

Time (PDT) Temp. Dew Point Humidity Pressure Visibility Wind Dir Wind Speed Gust Speed Precip Events Conditions
12:15 AM 66.2 °F 64.4 °F 94% 29.99 in 10.0 mi NNE 6.9 mph - N/A   Clear
12:35 AM 64.4 °F 64.4 °F 100% 29.99 in 10.0 mi NNE 4.6 mph - N/A   Clear
12:55 AM 64.4 °F 64.4 °F 100% 29.99 in 10.0 mi NE 4.6 mph - N/A   Partly Cloudy
1:15 AM 64.4 °F 62.6 °F 94% 29.99 in 10.0 mi NNE 4.6 mph - N/A   Scattered Clouds
1:35 AM 62.6 °F 60.8 °F 94% 29.99 in 10.0 mi NNE 4.6 mph - N/A   Scattered Clouds
1:55 AM 64.4 °F 64.4 °F 100% 29.99 in 10.0 mi NNE 4.6 mph - N/A   Mostly Cloudy
2:15 AM 60.8 °F 60.8 °F 100% 29.99 in 10.0 mi NNE 6.9 mph - N/A   Overcast
2:35 AM 60.8 °F 60.8 °F 100% 29.99 in 10.0 mi NE 5.8 mph - N/A   Overcast
2:55 AM 64.4 °F 62.6 °F 94% 29.99 in 10.0 mi North 6.9 mph - N/A   Overcast
3:15 AM 66.2 °F 64.4 °F 94% 30.00 in 10.0 mi North 4.6 mph - N/A   Overcast
3:35 AM 68.0 °F 66.2 °F 94% 29.99 in 10.0 mi NNE 5.8 mph - N/A   Overcast
3:55 AM 68.0 °F 66.2 °F 94% 30.00 in 10.0 mi NNE 6.9 mph - N/A   Overcast
4:15 AM 68.0 °F 68.0 °F 100% 30.00 in 10.0 mi North 6.9 mph - N/A   Overcast
4:35 AM 68.0 °F 68.0 °F 100% 30.00 in 8.0 mi North 6.9 mph - N/A   Overcast
4:55 AM 66.2 °F 66.2 °F 100% 30.01 in 5.0 mi North 4.6 mph - N/A   Overcast
5:15 AM 68.0 °F 66.2 °F 94% 30.01 in 10.0 mi North 3.5 mph - N/A   Overcast
5:35 AM 66.2 °F 66.2 °F 100% 30.01 in 9.0 mi North 5.8 mph - N/A   Overcast
5:55 AM 68.0 °F 66.2 °F 94% 30.01 in 10.0 mi NNE 5.8 mph - N/A   Overcast
6:15 AM 68.0 °F 66.2 °F 94% 30.00 in 10.0 mi NNE 6.9 mph - N/A   Overcast
6:35 AM 69.8 °F 68.0 °F 94% 30.00 in 10.0 mi NE 6.9 mph - N/A   Overcast
6:55 AM 68.0 °F 66.2 °F 94% 30.01 in 10.0 mi NNE 5.8 mph - N/A   Overcast
7:15 AM 69.8 °F 66.2 °F 88% 30.00 in 10.0 mi NNE 5.8 mph - N/A   Overcast
7:35 AM 69.8 °F 68.0 °F 94% 30.00 in 10.0 mi NE 6.9 mph - N/A   Overcast
7:55 AM 71.6 °F 68.0 °F 88% 30.00 in 10.0 mi NE 3.5 mph - N/A   Overcast
8:15 AM 71.6 °F 69.8 °F 94% 30.00 in 10.0 mi North 3.5 mph - N/A   Overcast
8:35 AM 69.8 °F 66.2 °F 88% 30.00 in 10.0 mi NNE 4.6 mph - N/A   Overcast
8:55 AM 69.8 °F 64.4 °F 83% 29.99 in 10.0 mi NNE 3.5 mph - N/A   Mostly Cloudy
9:15 AM 71.6 °F 66.2 °F 83% 29.99 in 10.0 mi North 3.5 mph - N/A   Mostly Cloudy
9:35 AM 71.6 °F 66.2 °F 83% 29.99 in 10.0 mi NNW 9.2 mph - N/A   Partly Cloudy
9:55 AM 73.4 °F 66.2 °F 78% 29.99 in 10.0 mi North 10.4 mph - N/A   Partly Cloudy
10:15 AM 73.4 °F 68.0 °F 83% 29.99 in 10.0 mi North 9.2 mph - N/A   Clear
10:35 AM 73.4 °F 68.0 °F 83% 30.00 in 10.0 mi North 11.5 mph - N/A   Clear
10:55 AM 71.6 °F 66.2 °F 83% 30.00 in 10.0 mi North 16.1 mph - N/A   Clear
11:15 AM 75.2 °F 69.8 °F 83% 30.01 in 10.0 mi North 13.8 mph 20.7 mph N/A   Scattered Clouds
11:35 AM 75.2 °F 69.8 °F 83% 30.00 in 10.0 mi NNE 15.0 mph 24.2 mph N/A   Overcast
11:55 AM 73.4 °F 66.2 °F 78% 30.00 in 10.0 mi North 16.1 mph 19.6 mph N/A   Scattered Clouds
12:15 PM 73.4 °F 66.2 °F 78% 30.01 in 10.0 mi North 18.4 mph 21.9 mph N/A   Scattered Clouds
12:35 PM 73.4 °F 66.2 °F 78% 30.01 in 10.0 mi NNE 15.0 mph 20.7 mph N/A   Scattered Clouds
12:55 PM 75.2 °F 68.0 °F 78% 30.02 in 10.0 mi North 12.7 mph 18.4 mph N/A   Clear
1:15 PM 75.2 °F 69.8 °F 83% 30.02 in 10.0 mi North 17.3 mph 20.7 mph N/A   Clear
1:35 PM 73.4 °F 66.2 °F 78% 30.01 in 10.0 mi NNE 18.4 mph 23.0 mph N/A   Clear
1:55 PM 73.4 °F 66.2 °F 78% 30.02 in 10.0 mi North 16.1 mph 21.9 mph N/A   Clear
2:15 PM 75.2 °F 66.2 °F 73% 30.03 in 10.0 mi North 17.3 mph 21.9 mph N/A   Clear
2:35 PM 73.4 °F 66.2 °F 78% 30.04 in 10.0 mi North 16.1 mph 24.2 mph N/A   Clear
2:55 PM 73.4 °F 66.2 °F 78% 30.04 in 10.0 mi North 17.3 mph - N/A   Clear
3:15 PM 73.4 °F 66.2 °F 78% 30.04 in 10.0 mi North 16.1 mph 23.0 mph N/A   Clear
3:35 PM 75.2 °F 69.8 °F 83% 30.04 in 10.0 mi North 19.6 mph 24.2 mph N/A   Partly Cloudy
3:55 PM 73.4 °F 66.2 °F 78% 30.04 in 10.0 mi North 20.7 mph 24.2 mph N/A   Partly Cloudy
4:15 PM 73.4 °F 68.0 °F 83% 30.05 in 10.0 mi North 21.9 mph 25.3 mph N/A   Mostly Cloudy
4:35 PM 73.4 °F 69.8 °F 88% 30.05 in 10.0 mi North 16.1 mph 25.3 mph N/A   Overcast
4:55 PM 71.6 °F 66.2 °F 83% 30.05 in 10.0 mi North 17.3 mph 24.2 mph N/A   Overcast
5:15 PM 69.8 °F 66.2 °F 88% 30.05 in 10.0 mi North 16.1 mph 23.0 mph N/A   Overcast
5:35 PM 71.6 °F 66.2 °F 83% 30.04 in 10.0 mi North 19.6 mph 25.3 mph N/A   Overcast
5:55 PM 75.2 °F 71.6 °F 89% 30.03 in 10.0 mi North 16.1 mph - N/A   Overcast
6:15 PM 73.4 °F 69.8 °F 88% 30.03 in 10.0 mi North 13.8 mph - N/A   Overcast
6:35 PM 73.4 °F 69.8 °F 88% 30.03 in 10.0 mi North 12.7 mph - N/A   Mostly Cloudy
6:55 PM 71.6 °F 68.0 °F 88% 30.03 in 10.0 mi North 13.8 mph 19.6 mph N/A   Clear
7:15 PM 69.8 °F 66.2 °F 88% 30.03 in 10.0 mi North 12.7 mph - N/A   Clear
7:35 PM 68.0 °F 66.2 °F 94% 30.04 in 10.0 mi North 13.8 mph - N/A   Mostly Cloudy
7:55 PM 69.8 °F 66.2 °F 88% 30.04 in 10.0 mi North 13.8 mph 19.6 mph N/A   Overcast
8:15 PM 71.6 °F 69.8 °F 94% 30.05 in 10.0 mi North 13.8 mph - N/A   Overcast
8:35 PM 69.8 °F 69.8 °F 100% 30.05 in 8.0 mi North 16.1 mph - N/A   Overcast
8:55 PM 69.8 °F 69.8 °F 100% 30.06 in 4.0 mi NNE 11.5 mph - N/A   Overcast
9:15 PM 69.8 °F 68.0 °F 94% 30.06 in 3.0 mi NNE 11.5 mph 18.4 mph N/A   Overcast
9:35 PM 68.0 °F 66.2 °F 94% 30.06 in 5.0 mi NNE 13.8 mph 21.9 mph N/A   Overcast
9:55 PM 66.2 °F 64.4 °F 94% 30.07 in 7.0 mi NNE 10.4 mph 16.1 mph N/A   Overcast
10:15 PM 68.0 °F 68.0 °F 100% 30.08 in 5.0 mi NNE 9.2 mph 18.4 mph N/A   Overcast
10:35 PM 66.2 °F 64.4 °F 94% 30.08 in 5.0 mi NNE 12.7 mph - N/A   Overcast
10:55 PM 69.8 °F 69.8 °F 100% 30.08 in 5.0 mi NNE 12.7 mph - N/A   Overcast
11:15 PM 66.2 °F 64.4 °F 94% 30.08 in 8.0 mi NNE 13.8 mph 18.4 mph N/A   Overcast
11:35 PM 66.2 °F 66.2 °F 100% 30.08 in 5.0 mi NNE 11.5 mph 20.7 mph N/A   Overcast
11:55 PM 68.0 °F 66.2 °F 94% 30.09 in 6.0 mi NNE 11.5 mph - N/A   Overcast